Temp_Advection
nan nan nan nan nan nan nan nan nan nan nan nan nan nan nan nan nan nan nan nan nan nan nan nan nan nan nan nan nan nan nan nan nan nan nan nan nan nan nan nan nan nan nan
nan -0 -0 -0 -0 -0 0 -0 0 0 -0 0 -0 -0 -0 0 -0 -0 -0 -0 0 0 0 -0 -0 -0 -0 -0 -0 -0 -0 -0 -0 -0 -0 -0 -0 -0 -0 -0 -0 -0 nan
nan -0 -0 -0 -0 -0 -0 0 0 0 0 0 -0 -0 0 -0 -0 0 -0 -0 -0 -0 -0 -0 -0 0 -0 -0 -0 -0 -0 -0 -0 -0 -0 -0 -0 -0 -0 -0 -0 -1 nan
nan -0 -0 -0 -0 -0 0 0 0 0 0 -0 -0 -0 -0 -0 0 -0 -0 -0 -0 -0 -0 -0 -0 -0 -0 -0 -0 -0 -0 -0 -0 -0 -0 -0 -0 -1 -1 -1 -0 -0 nan
nan 0 0 -0 0 0 0 0 0 0 -0 -0 -0 -0 -0 -0 -0 -0 -0 -0 -0 -0 -0 -0 -0 -0 -0 -0 -0 -0 -0 -1 -0 -0 -0 -0 -0 -0 -0 -0 -0 0 nan
nan -0 -0 0 0 0 0 0 -0 -0 -0 -0 -0 -0 -0 -0 -0 0 0 -0 -0 -0 -0 -0 -0 -0 -0 -0 -0 -0 -0 -0 -0 -0 -0 -0 -0 -0 -0 -0 -0 -0 nan
nan -0 0 0 0 0 0 0 -0 0 -0 -0 -0 -0 0 -0 -0 -0 -0 -0 -0 -0 -0 -0 -0 -0 -0 -0 -0 -0 -0 -0 -0 -0 -0 -0 -0 -0 -0 -0 -0 -0 nan
nan 0 0 0 0 0 0 -0 0 -0 -0 -0 -0 -0 0 -0 -0 -0 -0 -0 -0 -0 -0 -0 -0 -0 -0 -0 -0 -0 -0 -0 -0 -0 -0 -0 -0 -0 -0 -0 -0 -0 nan
nan 0 0 0 0 0 -0 0 0 0 -0 -0 -0 0 0 0 -0 -0 -0 -0 -0 -0 -0 -0 -0 -0 -0 -0 -0 -0 -0 -0 -0 -0 -0 -0 -0 -0 -0 -0 -0 -0 nan
nan 0 0 0 0 0 -0 0 -0 -0 -0 -0 -0 -0 0 0 -0 -0 -0 -0 -0 -0 -0 -0 -0 -0 -0 -0 -0 -0 -0 -0 -0 -0 -0 -0 -0 -0 -0 -0 -0 -0 nan
nan 1 1 0 0 -0 0 -0 -0 -0 -0 -0 -0 -0 0 0 -0 -0 0 0 -0 -0 -0 -0 -0 -0 -0 -0 -0 -0 -0 -0 -0 -0 -0 -0 -0 -0 -0 -0 -0 -0 nan
nan 1 0 0 -0 -0 -0 -0 -0 0 -0 -0 -0 -0 -0 0 0 -0 -0 -0 0 -0 -0 -0 -0 -0 -0 -0 -0 -0 -0 -0 -0 -0 -0 -0 -0 0 -0 -0 -1 -0 nan
nan 1 0 -0 -0 -0 0 0 0 -0 -0 -0 -0 -0 -0 -0 -0 -0 -0 -0 -0 -0 -0 -0 -0 -0 -0 -0 -0 -0 -0 -0 -0 -0 -0 -0 -0 -0 -0 -0 -0 -0 nan
nan 0 0 -0 -0 0 0 0 0 -0 -0 -0 -0 -0 -0 -0 -0 -0 -0 0 0 0 -0 -0 -0 -0 -0 -0 -0 -0 -0 -0 -0 -0 -0 -0 -0 -0 -0 -0 -0 -0 nan
nan 0 -0 -1 0 0 -0 0 0 0 -0 0 0 0 -0 -0 -0 0 0 0 0 0 0 0 0 0 0 -0 -0 -0 -0 -0 -0 -0 -0 -0 -0 -0 -0 -0 -0 -0 nan
nan -0 -1 -0 0 0 0 0 -0 0 0 1 1 0 0 0 0 0 0 -0 -0 -0 0 0 0 0 0 0 0 -0 -0 0 0 -0 0 -0 -0 -0 -0 0 0 -0 nan
nan 0 -1 0 0 0 0 -0 -0 -0 -1 -0 0 0 0 0 0 0 0 0 0 0 0 0 0 0 0 0 0 0 0 0 0 0 0 0 -0 -0 -0 -0 0 -0 nan
nan 0 0 0 0 0 -0 0 -0 -1 -0 0 0 -0 0 0 0 0 0 0 0 0 0 0 -0 0 0 0 0 0 0 0 0 0 0 0 0 0 0 -0 -0 -0 nan
nan 0 0 0 1 1 0 0 -0 0 1 1 0 -0 -0 0 0 0 0 -0 0 0 -0 -0 0 0 0 0 0 0 0 0 0 0 0 0 0 0 0 -0 -0 -0 nan
nan -0 -0 0 0 0 -0 -1 -0 0 0 0 -0 -0 0 0 -0 -0 -0 -0 -0 -0 -0 -0 -0 0 0 0 0 0 0 0 0 0 0 0 0 0 0 0 -0 -0 nan
nan -0 -0 0 0 -0 -0 -0 -0 0 1 0 0 0 0 1 0 -0 -1 -0 -0 -0 -0 0 0 0 0 0 0 0 0 0 0 0 0 0 0 0 0 0 -0 -0 nan
nan 2 1 1 1 -0 0 0 0 0 1 0 0 0 1 0 -0 -1 -1 -0 0 0 0 0 0 0 0 0 0 0 0 0 0 0 0 0 0 0 0 0 0 -0 nan
nan 2 1 1 0 1 2 2 1 1 1 0 -0 -0 -0 -0 -1 -0 0 0 1 1 0 0 0 0 0 0 0 0 0 0 1 0 0 0 0 0 0 0 0 -0 nan
nan 2 -0 0 0 2 2 1 -0 -0 -0 -0 0 0 0 0 0 -0 -0 0 1 1 1 0 1 1 0 0 0 0 0 0 0 0 0 0 0 0 0 0 0 0 nan
nan -1 -1 0 -1 0 -0 -0 0 -1 -1 -1 0 1 0 -0 -1 -1 0 1 1 1 2 1 1 1 1 -0 -0 0 0 0 0 0 0 0 -0 -0 0 0 0 0 nan
nan nan nan nan nan nan nan nan nan nan nan nan nan nan nan nan nan nan nan nan nan nan nan nan nan nan nan nan nan nan nan nan nan nan nan nan nan nan nan nan nan nan nan
Wind_Speed
15 15 15 13 12 10 9 7 7 7 7 5 3 1 0 0 2 1 1 2 3 4 4 5 6 8 8 7 6 6 5 3 2 5 8 9 11 11 12 13 14 15 18
14 14 13 12 11 9 10 11 8 5 4 3 2 2 1 2 1 0 2 4 5 8 9 8 9 9 8 9 8 8 8 6 4 2 3 7 8 10 12 15 15 14 14
15 14 13 12 12 10 9 8 3 4 4 2 0 3 4 4 3 4 6 7 7 9 10 10 12 11 12 12 11 11 11 11 9 7 7 8 10 10 11 11 11 12 13
14 14 13 11 9 8 7 4 5 4 3 1 5 6 6 7 7 7 7 8 9 10 10 10 11 11 12 11 12 13 12 11 11 10 10 11 12 14 14 16 14 12 15
12 12 14 13 11 9 7 6 3 3 3 6 6 7 8 7 8 8 8 9 9 9 9 10 11 12 12 13 13 14 14 14 13 13 13 12 14 15 18 16 14 12 12
14 12 12 12 9 9 5 6 4 4 7 7 9 8 8 7 8 9 8 8 9 9 10 10 10 12 13 13 14 14 15 15 15 11 11 12 15 13 15 15 14 13 12
16 16 14 13 12 11 8 6 6 8 8 10 9 8 7 7 9 8 8 8 9 11 12 13 12 11 10 11 12 11 10 11 11 12 11 11 10 11 12 13 13 12 11
19 18 17 16 12 10 9 8 10 11 10 9 10 8 7 9 9 7 8 9 11 13 14 14 13 12 10 8 9 9 9 10 11 11 11 11 11 12 13 14 15 14 12
22 20 18 16 12 10 10 12 13 12 11 11 10 9 8 10 11 10 10 12 12 12 12 12 11 11 11 11 9 9 10 10 11 12 13 13 12 13 14 11 13 13 12
22 19 17 15 13 12 12 14 14 13 12 11 11 9 9 9 12 12 11 11 11 12 11 10 10 10 10 10 10 9 9 10 10 10 10 11 12 12 13 15 14 13 15
22 19 18 16 14 13 15 16 15 13 12 12 11 10 9 9 11 11 10 9 8 9 8 7 7 7 9 12 12 11 11 11 11 10 9 9 10 12 14 16 17 16 13
23 22 20 18 17 18 18 17 16 14 13 13 13 13 12 11 10 11 9 7 5 5 4 4 4 5 9 11 10 10 10 10 9 9 9 10 11 13 15 16 14 14 14
25 24 21 19 20 21 20 19 18 16 15 15 15 15 15 14 12 12 9 7 5 4 2 2 3 6 10 12 10 10 9 8 9 9 9 11 14 16 14 12 11 12 10
26 25 23 22 24 24 22 20 17 16 17 16 15 16 18 17 15 14 11 9 7 5 4 2 3 6 9 9 9 8 7 9 11 10 10 12 13 12 11 13 12 12 10
28 27 26 26 26 27 24 21 18 14 12 11 13 15 16 16 13 12 11 9 8 7 4 2 2 4 8 7 9 9 8 8 8 11 9 11 12 11 11 12 11 11 12
32 30 30 31 32 30 28 24 20 17 16 16 13 12 14 11 12 11 10 10 9 8 6 3 3 4 5 4 5 8 9 9 9 10 10 13 11 10 11 11 11 12 12
33 31 33 33 35 34 30 27 25 24 23 20 19 17 15 11 10 9 9 11 12 11 10 8 5 4 5 6 5 7 8 10 11 11 12 15 12 11 12 11 12 11 12
34 31 33 36 36 34 32 29 27 27 27 26 25 22 19 15 12 12 11 13 15 14 13 11 9 6 6 6 7 7 10 11 11 11 13 14 12 12 12 12 11 12 13
37 35 35 37 36 34 33 31 29 28 28 26 27 25 23 20 18 16 15 15 16 14 13 12 12 11 9 8 9 10 10 12 11 11 12 15 14 13 13 11 11 13 15
39 36 36 38 37 36 35 33 32 31 31 30 29 26 25 26 26 23 21 19 20 17 15 14 14 14 12 11 12 12 11 12 12 12 13 14 14 14 13 11 10 12 14
42 40 38 39 39 38 37 36 35 33 33 32 30 27 26 24 25 24 21 19 19 19 18 16 16 15 14 14 14 14 12 12 13 13 13 14 13 13 13 11 12 13 15
43 42 42 43 42 40 41 38 38 36 34 32 30 28 25 25 25 24 22 21 21 20 20 20 19 18 17 17 16 15 14 14 14 13 13 11 11 11 12 11 11 13 15
47 45 44 45 43 42 43 42 40 39 37 35 32 31 29 30 29 27 25 24 21 20 21 23 23 20 17 17 18 17 16 15 14 12 10 8 8 9 11 11 12 14 15
48 44 42 43 44 43 41 40 37 40 39 37 35 35 34 32 30 27 24 24 26 24 21 21 24 21 22 22 19 19 17 15 13 10 6 4 4 8 11 13 13 16 16
46 43 39 40 39 41 41 42 42 42 42 39 38 38 35 32 31 29 27 26 27 27 25 24 23 21 23 25 24 21 18 15 12 7 3 2 4 7 10 14 16 18 16
39 34 29 33 26 34 39 45 45 46 46 45 42 41 36 32 33 29 30 29 31 30 30 29 31 30 28 22 26 23 15 15 12 8 5 2 5 8 10 12 15 17 16
Wind_Direction
197 202 206 214 214 221 244 259 273 274 253 258 265 244 100 40 204 260 299 5 27 53 65 60 57 50 45 41 29 13 352 322 321 328 338 342 336 339 348 343 350 355 347
195 195 198 206 214 225 239 253 261 302 320 321 345 340 153 137 127 102 38 81 79 86 78 67 63 55 49 47 48 49 51 53 69 53 10 12 355 358 352 350 355 358 359
185 191 198 206 215 218 235 246 279 291 300 297 50 126 118 117 97 96 96 98 95 86 80 75 74 72 72 69 69 69 65 65 73 73 47 29 23 20 20 16 13 10 19
186 192 198 199 212 226 239 251 273 281 284 154 134 132 123 114 115 104 98 96 94 93 92 86 80 74 73 67 63 62 58 59 53 54 55 46 40 37 31 30 20 22 20
191 197 202 204 217 227 236 234 264 259 171 136 129 128 122 107 99 92 94 99 99 95 87 81 77 73 70 69 70 68 64 60 55 55 53 46 40 32 30 26 25 26 24
196 193 194 202 214 226 230 227 226 182 147 133 127 118 107 104 98 103 101 98 99 95 89 85 87 87 83 73 67 65 62 61 56 54 40 33 30 26 25 21 19 17 9
198 198 202 208 207 200 207 207 184 161 145 132 127 119 108 97 97 99 103 104 103 94 88 89 98 91 83 73 63 55 49 45 42 37 28 20 10 4 6 10 3 360 350
202 205 209 208 209 190 196 191 170 158 148 138 130 121 107 105 100 104 107 106 106 99 91 88 86 79 73 66 43 31 35 22 20 17 13 11 10 2 356 353 353 359 354
207 208 208 210 204 202 194 176 168 164 154 146 139 129 119 115 111 109 111 112 105 98 93 85 77 71 61 48 27 17 6 9 14 11 5 2 358 351 348 357 352 356 350
207 205 203 203 200 197 184 176 167 164 160 154 155 148 134 119 110 110 112 108 102 94 90 85 70 60 43 23 11 15 23 31 30 15 357 347 344 349 357 3 5 0 355
203 200 197 194 193 184 180 175 175 172 169 170 172 169 155 137 130 128 123 115 104 89 85 84 68 43 18 11 17 23 27 27 21 18 17 16 12 5 358 352 349 346 343
201 196 191 190 187 183 180 180 178 180 180 181 182 184 178 168 163 157 150 139 123 106 99 94 62 27 6 6 9 20 23 27 25 21 18 11 6 359 356 359 2 0 354
197 195 190 191 189 184 185 185 184 185 186 186 189 191 192 189 184 180 174 173 165 156 136 79 25 6 360 0 5 7 12 19 24 22 13 4 358 354 360 0 2 11 359
198 196 195 197 189 186 187 189 189 189 186 187 191 193 195 195 195 194 194 191 189 183 168 119 19 2 352 353 3 360 4 10 14 12 1 353 351 352 355 353 352 352 357
200 200 199 197 194 191 192 191 188 186 188 190 191 195 193 195 196 194 197 199 200 196 185 203 336 349 350 353 4 8 2 360 1 356 354 349 346 349 345 344 345 344 341
200 202 201 200 195 196 193 188 185 180 180 178 182 183 173 175 187 191 196 199 192 197 206 255 305 317 342 339 352 4 357 346 343 348 351 346 341 341 340 340 339 338 336
206 206 203 203 200 196 193 193 190 182 183 188 185 179 177 182 182 196 207 208 201 203 210 229 251 304 324 348 337 343 350 342 340 342 342 346 343 340 338 333 332 334 335
209 213 211 205 205 200 198 197 199 201 199 197 196 193 194 193 192 206 214 213 212 216 217 225 238 264 292 324 339 338 345 344 335 332 335 342 341 336 338 335 336 331 335
209 211 212 211 209 204 202 201 205 207 209 208 205 204 205 207 209 215 216 220 221 226 231 231 238 253 276 292 314 328 331 335 328 328 332 338 340 342 336 334 331 335 342
212 214 211 212 211 207 207 206 208 212 210 212 216 213 214 214 217 222 226 224 222 224 233 236 244 249 258 281 294 308 319 328 324 324 330 336 337 340 337 334 335 333 334
213 213 212 213 214 211 212 211 213 216 216 216 217 217 224 225 230 231 230 226 223 221 222 232 232 235 246 266 278 291 305 319 320 320 326 332 336 337 337 331 329 330 329
217 217 212 213 214 214 214 214 215 219 220 220 220 221 221 225 227 231 227 219 211 203 207 213 224 236 244 252 266 277 294 312 311 315 323 331 334 339 342 331 327 331 331
215 217 214 215 216 218 217 216 216 218 221 221 221 223 220 221 223 223 218 218 219 212 210 214 225 236 246 251 257 267 282 302 305 308 315 328 341 350 356 344 337 336 332
215 214 213 214 216 218 221 222 222 221 222 223 222 225 227 225 226 225 223 224 225 228 229 230 237 243 256 255 260 261 272 291 297 300 307 334 5 4 1 355 348 342 335
218 217 219 220 221 225 227 228 227 230 230 228 225 226 228 227 229 227 222 224 232 235 238 241 243 239 240 253 260 254 266 280 285 276 262 317 6 1 357 352 350 345 337
220 219 219 226 243 255 243 238 238 238 235 232 229 226 226 227 226 224 227 228 230 238 240 236 236 235 237 234 246 234 259 269 266 242 235 290 1 357 351 349 345 339 333
Height
1561 1563 1566 1570 1574 1575 1575 1577 1577 1577 1578 1577 1577 1576 1575 1575 1575 1574 1573 1573 1572 1571 1570 1570 1569 1568 1567 1565 1564 1562 1562 1562 1563 1563 1562 1560 1559 1556 1554 1552 1550 1549 1546
1559 1561 1564 1567 1569 1570 1571 1574 1575 1574 1574 1574 1574 1574 1574 1574 1574 1574 1572 1572 1572 1571 1571 1570 1570 1569 1568 1566 1565 1564 1563 1563 1564 1564 1562 1562 1560 1557 1555 1553 1551 1549 1546
1556 1559 1562 1565 1568 1570 1571 1572 1572 1573 1573 1573 1573 1573 1573 1574 1574 1573 1573 1573 1573 1572 1572 1572 1572 1571 1570 1569 1568 1567 1566 1565 1564 1564 1564 1563 1561 1560 1557 1555 1552 1550 1549
1553 1557 1560 1563 1565 1568 1569 1570 1571 1571 1571 1572 1573 1573 1573 1574 1574 1574 1574 1574 1574 1574 1573 1573 1573 1573 1572 1572 1571 1570 1569 1568 1567 1566 1565 1564 1563 1561 1560 1557 1556 1553 1550
1551 1554 1558 1562 1564 1565 1567 1568 1569 1569 1570 1571 1572 1573 1574 1574 1574 1575 1575 1576 1576 1576 1575 1575 1574 1574 1574 1574 1574 1573 1572 1571 1572 1571 1569 1568 1565 1564 1561 1559 1558 1556 1553
1549 1552 1556 1559 1562 1563 1565 1567 1568 1568 1569 1571 1572 1573 1574 1575 1575 1576 1576 1576 1577 1577 1577 1577 1577 1577 1578 1577 1577 1576 1575 1574 1573 1572 1572 1571 1568 1566 1564 1562 1560 1558 1556
1546 1549 1553 1557 1559 1561 1562 1564 1566 1568 1569 1571 1573 1574 1575 1576 1576 1577 1577 1578 1578 1579 1580 1580 1581 1581 1580 1579 1579 1578 1577 1576 1575 1574 1573 1571 1570 1567 1565 1562 1560 1557 1556
1543 1547 1550 1553 1556 1559 1561 1563 1565 1568 1570 1572 1573 1575 1576 1577 1578 1578 1579 1580 1581 1582 1582 1583 1584 1583 1582 1582 1582 1581 1579 1578 1576 1574 1572 1571 1569 1567 1565 1563 1560 1557 1556
1539 1544 1548 1551 1554 1557 1559 1562 1564 1567 1570 1572 1574 1576 1578 1578 1579 1580 1582 1583 1584 1584 1585 1585 1585 1585 1585 1585 1584 1582 1579 1577 1575 1574 1573 1571 1570 1568 1565 1564 1561 1559 1556
1536 1541 1545 1549 1552 1555 1558 1561 1564 1567 1570 1572 1575 1577 1579 1579 1580 1582 1584 1585 1587 1588 1587 1587 1588 1588 1587 1586 1584 1582 1580 1579 1577 1576 1574 1572 1570 1567 1565 1562 1561 1560 1557
1533 1538 1542 1546 1549 1552 1556 1559 1562 1566 1569 1572 1575 1577 1578 1579 1581 1583 1585 1586 1588 1588 1589 1589 1589 1588 1587 1586 1585 1583 1580 1578 1577 1576 1574 1573 1571 1569 1565 1562 1559 1557 1555
1531 1535 1539 1543 1546 1549 1553 1557 1561 1564 1567 1570 1573 1575 1577 1578 1580 1582 1584 1585 1586 1588 1589 1589 1588 1587 1586 1585 1583 1582 1581 1579 1578 1578 1577 1574 1571 1568 1565 1562 1560 1557 1554
1527 1532 1535 1539 1543 1547 1550 1554 1558 1561 1565 1567 1570 1572 1575 1577 1580 1582 1583 1585 1586 1587 1589 1590 1590 1588 1587 1586 1585 1584 1581 1579 1578 1577 1576 1574 1570 1568 1565 1562 1560 1557 1555
1523 1527 1532 1535 1539 1544 1548 1552 1555 1558 1561 1565 1567 1570 1573 1575 1578 1580 1582 1584 1586 1587 1588 1588 1588 1588 1588 1587 1585 1583 1582 1580 1578 1576 1575 1573 1571 1569 1566 1562 1560 1557 1555
1519 1523 1528 1531 1536 1540 1545 1549 1552 1556 1560 1562 1565 1568 1570 1573 1575 1578 1581 1584 1586 1587 1588 1588 1588 1588 1587 1586 1585 1583 1582 1580 1577 1575 1574 1572 1570 1567 1565 1563 1560 1558 1556
1512 1517 1522 1525 1530 1535 1540 1544 1548 1553 1557 1560 1564 1566 1568 1571 1574 1576 1579 1581 1583 1586 1589 1590 1590 1589 1588 1586 1586 1584 1582 1580 1578 1576 1574 1571 1569 1566 1565 1564 1561 1559 1556
1507 1512 1517 1521 1525 1530 1535 1539 1544 1550 1554 1557 1560 1563 1565 1568 1571 1573 1575 1577 1580 1583 1586 1588 1589 1589 1588 1586 1584 1583 1581 1579 1579 1577 1574 1571 1570 1568 1565 1562 1559 1557 1555
1505 1509 1514 1517 1521 1527 1531 1536 1540 1544 1546 1549 1553 1556 1559 1562 1565 1569 1572 1575 1578 1580 1582 1584 1586 1587 1586 1585 1583 1580 1578 1577 1576 1575 1574 1571 1568 1566 1563 1561 1559 1556 1553
1497 1502 1509 1514 1518 1524 1528 1533 1537 1541 1544 1547 1549 1552 1555 1558 1562 1564 1568 1572 1576 1579 1581 1582 1584 1585 1586 1585 1583 1581 1579 1576 1574 1573 1570 1568 1565 1562 1562 1559 1557 1554 1551
1491 1497 1502 1508 1513 1519 1523 1528 1530 1533 1538 1541 1544 1548 1551 1553 1555 1558 1562 1566 1569 1574 1578 1579 1581 1583 1584 1584 1583 1580 1578 1575 1573 1570 1568 1564 1562 1560 1559 1557 1555 1553 1551
1482 1488 1494 1500 1504 1510 1516 1521 1525 1529 1532 1535 1539 1544 1547 1550 1553 1556 1558 1560 1562 1565 1568 1572 1575 1577 1578 1580 1578 1578 1576 1574 1571 1569 1566 1564 1561 1559 1557 1554 1553 1551 1547
1474 1480 1486 1491 1496 1501 1505 1511 1516 1522 1526 1530 1535 1538 1542 1546 1548 1550 1552 1553 1552 1551 1555 1561 1567 1569 1571 1572 1574 1573 1572 1571 1568 1566 1564 1561 1559 1557 1554 1552 1549 1548 1546
1468 1472 1478 1483 1489 1494 1497 1501 1505 1510 1515 1522 1528 1530 1532 1534 1538 1540 1544 1548 1553 1555 1553 1554 1560 1564 1567 1569 1570 1571 1570 1568 1565 1564 1561 1558 1557 1555 1552 1551 1548 1546 1543
1459 1464 1469 1474 1478 1485 1491 1498 1503 1503 1505 1510 1517 1519 1521 1525 1530 1534 1538 1543 1548 1552 1555 1555 1557 1561 1564 1565 1564 1565 1565 1564 1562 1560 1560 1557 1554 1553 1552 1549 1547 1544 1541
1454 1458 1463 1469 1472 1477 1482 1488 1492 1499 1503 1504 1507 1509 1512 1518 1522 1524 1527 1531 1539 1543 1545 1548 1553 1555 1550 1555 1557 1558 1559 1559 1558 1557 1557 1554 1551 1549 1548 1548 1546 1543 1539
1449 1455 1461 1464 1462 1472 1471 1476 1482 1486 1492 1495 1497 1499 1501 1504 1505 1511 1516 1517 1525 1532 1534 1534 1538 1541 1541 1542 1546 1549 1552 1552 1552 1552 1552 1551 1549 1548 1546 1544 1543 1541 1538